Regional Weather Roundup
Issued by NWS

Home | Current Version | Previous Version | Text Only | Print | Product List | Glossary Off
Versions: 1 2 3 4 5 6 7 8 9 10 11 12 13 14 15 16 17 18 19 20 21 22 23 24 25 26 27 28 29 30 31 32 33 34 35 36 37 38 39 40 41 42 43 44 45 46 47 48 49 50

000
ASUS45 KTFX 062210
RWRMT
MONTANA REGIONAL WEATHER ROUNDUP
NATIONAL WEATHER SERVICE GREAT FALLS MT
400 PM MDT MON JUL 06 2015

NOTE: "FAIR" INDICATES FEW OR NO CLOUDS BELOW 12000 FEET WITH NO
SIGNIFICANT WEATHER AND/OR OBSTRUCTIONS TO VISIBILITY.

MTZ001>007-043-062300-
WEST OF THE DIVIDE

CITY           SKY/WX    TMP DP  RH WIND       PRES   REMARKS
KALISPELL      CLEAR     77  38  24 VRB3      30.08F
MISSOULA       SUNNY     82  44  26 N15       30.08F
BUTTE          PTSUNNY   76  46  34 N7        30.15F
MULLAN PASS    MOSUNNY   74  38  27 CALM      30.24F
DEER LODGE       N/A     79  46  31 NW9       30.15F
EUREKA           N/A     84  41  21 E3        30.04F
HAMILTON         N/A     79  50  36 N12       30.06F
LIBBY            N/A     84  43  23 NW3       30.04F
PLAINS           N/A     85  43  22 CALM      30.06F
RONAN            N/A     77  47  34 W2        30.15F
THOMPSON FALLS   N/A     86  40  19 NE5       30.06F
$$

MTZ008-052>055-062300-
SOUTHWEST MONTANA

CITY           SKY/WX    TMP DP  RH WIND       PRES   REMARKS
BOZEMAN        SUNNY     77  49  37 VRB5      30.12F
DILLON         SUNNY     82  53  36 NE9       30.11F
W YELLOWSTONE  PTSUNNY   68  46  45 NW5       30.22F
THREE FORKS      N/A     75  56  51 E1        30.11F
TWIN BRIDGES     N/A     79  47  32 SW7       30.09F
$$

MTZ009-010-012-014-046-048-049-054-062300-
EAST SLOPES AND CENTRAL MONTANA

CITY           SKY/WX    TMP DP  RH WIND       PRES   REMARKS
CUT BANK       SUNNY     73  42  32 VRB5      30.13F
GREAT FALLS    MOSUNNY   73  49  42 SW6       30.13F
MALMSTROM AFB  SUNNY     72  49  44 SW5       30.13F
HELENA         SUNNY     77  51  40 NE7       30.10F
CONRAD           N/A     70  54  56 E2        30.16F
$$

MTZ011-013-016-021-045-047-050-051-062300-
NORTH CENTRAL MONTANA

CITY           SKY/WX    TMP DP  RH WIND       PRES   REMARKS
HAVRE          SUNNY     75  44  33 CALM      30.13F
LEWISTOWN      MOSUNNY   72  46  39 E6        30.18F
CHINOOK          N/A     72  46  40 SE6       30.14F
FORT BENTON      N/A     73  48  40 E3        30.13F
$$

MTZ017>020-022>027-061-062-062300-
NORTHEAST MONTANA

CITY           SKY/WX    TMP DP  RH WIND       PRES   REMARKS
GLASGOW        MOSUNNY   72  42  34 S6        30.16F
JORDAN           N/A     75  44  33 VRB3      30.16F
SIDNEY         PTSUNNY   72  48  43 NE7       30.18S
WOLF POINT     CLOUDY    72  47  40 S3        30.17F
MALTA            N/A     75  44  33 S2        30.11F
PLENTYWOOD       N/A     70  45  40 NE3       30.17F
POPLAR           N/A     72  48  43 CALM      30.18S
SCOBEY           N/A     70  45  40 W3        30.16S
$$

MTZ028>42-056>058-062300-
SOUTHCENTRAL AND SOUTHEAST MONTANA

CITY           SKY/WX    TMP DP  RH WIND       PRES   REMARKS
BAKER          MOSUNNY   71  47  42 W9        30.20F
BILLINGS       MOSUNNY   71  47  42 E8        30.19F
LIVINGSTON     SUNNY     74  50  42 E13       30.15F
MILES CITY     PTSUNNY   75  49  39 W10       30.17F
FORSYTH          N/A     72  46  40 CALM      30.17F
LAUREL           N/A     73  47  39 N6        30.15F
ROUNDUP          N/A     71  43  36 N1        30.08F
$$

REGIONAL REPORTS...DAKOTAS

CITY           SKY/WX    TMP DP  RH WIND       PRES   REMARKS
WILLISTON      MOSUNNY   70  46  42 N10       30.18F
MINOT          MOSUNNY   68  46  45 NW10      30.17R
DICKINSON      MOSUNNY   71  51  49 NE16      30.17R
BEACH          CLOUDY    68  46  45 N9        30.20S
CROSBY         FAIR      66  45  45 N6        30.20S
BISMARCK       CLOUDY    70  53  54 N9        30.16R HAZE
GRAND FORKS    PTSUNNY   65  49  56 N16G23    30.10S
FARGO          PTSUNNY   66  49  54 N17G28    30.10R
BUFFALO SD       N/A     73  47  39 NW10      30.14F
RAPID CITY     MOSUNNY   70  54  56 N12       30.21F
$$

REGIONAL REPORTS...WYOMING/IDAHO/WASHINGTON

CITY           SKY/WX    TMP DP  RH WIND       PRES   REMARKS
GILLETTE       CLOUDY    65  52  62 N3        30.25S
SHERIDAN       CLOUDY    62  54  74 SE5       30.24F
BUFFALO WY     CLOUDY    59  52  77 S3        30.28F HAZE
CODY           PTSUNNY   68  48  49 CALM      30.22F
YELLOWSTONE LA   N/A     65  46  50 VRB5      30.32F
IDAHO FALLS    PTSUNNY   66  59  78 N13       30.15R
SALMON         MOSUNNY   84  48  28 NW5       29.98F
BOISE          SUNNY     91  51  25 W8        30.00F
SPOKANE        PTSUNNY   89  40  17 N3        30.00F
$$

REGIONAL REPORTS...ALBERTA

CITY           SKY/WX    TMP DP  RH WIND       PRES   REMARKS
CALGARY        CLOUDY    72  46  40 S13G21    30.06F
LETHBRIDGE     PTSUNNY   75  46  35 S14G20    30.07F
MEDICINE HAT   PTSUNNY   73  43  33 S8G17     30.10F
WATERTON GATE    N/A     77  41  27 SW10        N/A
CARDSTON         N/A     75  50  41 SE7         N/A
MILK RIVER       N/A     73  48  40 SE10        N/A
ONEFOUR          N/A     72  39  30 S6          N/A
$$

REGIONAL REPORTS...SASKATCHEWAN

CITY           SKY/WX    TMP DP  RH WIND       PRES   REMARKS
SWIFT CURRENT  PTSUNNY   68  43  40 S8        30.15F
REGINA         MOSUNNY   70  43  37 W8        30.17F
SASKATOON      MOSUNNY   72  45  37 SW9       30.14F
CYPRESS HILLS    N/A     64  43  45 S5          N/A
VAL MARIE        N/A     70  41  35 S5          N/A
ROCKGLEN         N/A     66  45  45 S3          N/A
ASSINIBOIA       N/A     73  41  31 S7          N/A
$$


USA.gov is the U.S. government's official web portal to all federal, state and local government web resources and services.